This is the latest recevied weather packets stored in our database for station/object EA1IQY-10. If no packets are shown the sender has not sent any weather packets the latest 10 day(s).
| Time | Temp. | Humidity | Pressure | Rain* | Wind** | Luminosity | Snow |
|---|---|---|---|---|---|---|---|
| 1777430523 | 17.78° C | 100% | 995.2 hPa | - | - | - | - |
| 1777429623 | 16.67° C | 100% | 995.5 hPa | - | - | - | - |
| 1777428722 | 18.89° C | 100% | 995.5 hPa | - | - | - | - |
| 1777427857 | 16.67° C | 100% | 995.6 hPa | - | - | - | - |
| 1777427822 | 16.67° C | 100% | 995.6 hPa | - | - | - | - |
| 1777426922 | 18.89° C | 100% | 995.8 hPa | - | - | - | - |
| 1777426022 | 18.89° C | 100% | 996 hPa | - | - | - | - |
| 1777425122 | 20° C | 100% | 996.2 hPa | - | - | - | - |
| 1777424220 | 19.44° C | 100% | 996.3 hPa | - | - | - | - |
| 1777423320 | 16.67° C | 100% | 996.5 hPa | - | - | - | - |
| 1777422420 | 17.22° C | 100% | 996.5 hPa | - | - | - | - |
| 1777421520 | 17.78° C | 100% | 996.8 hPa | - | - | - | - |
| 1777420620 | 17.78° C | 100% | 996.8 hPa | - | - | - | - |
| 1777419874 | 16.11° C | 100% | 996.7 hPa | - | - | - | - |
| 1777419720 | 16.11° C | 100% | 996.7 hPa | - | - | - | - |
| 1777418820 | 19.44° C | 100% | 996.8 hPa | - | - | - | - |
| 1777417919 | 18.33° C | 100% | 997 hPa | - | - | - | - |
| 1777417019 | 16.11° C | 100% | 996.9 hPa | - | - | - | - |
| 1777416119 | 17.78° C | 100% | 996.8 hPa | - | - | - | - |
| 1777415219 | 16.67° C | 100% | 996.8 hPa | - | - | - | - |
| 1777414319 | 17.22° C | 100% | 996.8 hPa | - | - | - | - |
| 1777413419 | 17.22° C | 100% | 996.8 hPa | - | - | - | - |
| 1777412518 | 16.67° C | 100% | 996.7 hPa | - | - | - | - |
| 1777411618 | 17.22° C | 100% | 996.7 hPa | - | - | - | - |
| 1777410718 | 17.78° C | 100% | 996.7 hPa | - | - | - | - |
* Rain since midnight (hover to see other rain measurements)
** Current wind speed in m/s (hover to see current wind gust speed)